www.pogodaiklimat.ru

Погода и климат >> Архив погоды >> Россия >> Камчатский край >> Остров Беринга


ПОГОДА на Острове Беринга

  • Прогноз погоды на Острове Беринга
  • Монитор погоды на Острове Беринга
  • Климат города

АРХИВ ПОГОДЫ на Острове Беринга

Время (UTC), дата Ветер
(напр.,м/с)
 
Видим.   Явления Облачность Т
(С)
Тd
(С)
f
(%)
Тe
(С)
Тes
(С)
Комфортность P
(гПа)
Po
(гПа)
Тmin
(С)
Tmax
(С)
R
(мм)
R24
(мм)
S
(см)
06 17.05 Ю 6 20 км в посл. час туман 6/6 600 м
[Cu Sc]
+3.1 +2.5 96 -3 -2 1013.7 1011.5
09 17.05 Ю 7 4000 м дымка 10/10 300 м
[St]
+2.8 +2.4 97 -4 -4 1014.2 1011.9 +4.0
12 17.05 Ю 8-10
{11}
500 м туман ?/? +2.8 +2.6 99 -4 -4 1013.8 1011.5
15 17.05 Ю 7-10
{10}
500 м туман ?/? +3.2 +2.6 96 -3 -3 1013.2 1010.9
18 17.05 ЮВ 5
{10}
20 км в посл. час туман 10/10 600 м
[Sc]
+3.3 +2.5 94 -2 -2 1012.6 1010.4
21 17.05 Ю 4 20 км 10/10 600 м
[Sc]
+3.8 +2.5 91 -1 -1 1012.3 1010.1 +2.4 0
00 18.05 Ю 3 20 км 8/5 1000 м
[Cu med, cong Ci]
+5.3 +3.0 85 +2 +7 1011.3 1009.1
03 18.05 Ю 3 20 км 8/5 1000 м
[Cu med, cong Ci]
+5.3 +3.0 85 +2 +6 1011.3 1009.1
06 18.05 ЮЗ 3 20 км 5/1 600 м
[Cu hum Ci fib]
+5.7 +3.2 84 +2 +5 1010.5 1008.3
09 18.05 В 5 20 км 9/9 200 м
[St]
+2.6 +1.7 94 -3 -3 1010.4 1008.2 +6.0
12 18.05 В 4 20 км 10/10 200 м
[St]
+2.0 +1.1 94 -3 -3 1010.4 1008.2
15 18.05 В 3 20 км 10/10 200 м
[St]
+1.4 +0.6 94 -3 -3 1010.1 1007.9
18 18.05 В 3 20 км 10/10 300 м
[Sc]
+2.0 +0.9 92 -2 -2 1010.5 1008.3
21 18.05 З 2 20 км 10/10 300 м
[Sc]
+3.2 +1.1 86 0 0 1011.0 1008.8 +0.9 0
00 19.05 ЮЗ 2 20 км 10/10 300 м
[Sc]
+4.4 +1.4 81 +2 +2 1010.9 1008.7
03 19.05 ЮЗ 5 20 км 9/9 600 м
[Sc]
+4.8 +1.5 79 0 +1 1010.6 1008.4
06 19.05 Ю 6 20 км 10/10 600 м
[Sc]
+4.0 +2.1 87 -2 -2 1010.1 1007.9
09 19.05 Ю 7-10
{11}
20 км 10/10 600 м
[Sc]
+3.6 +1.6 87 -2 -2 1009.6 1007.4 +5.9
12 19.05 ЮЗ 8-10
{12}
20 км 10/10 600 м
[Sc]
+3.7 +2.1 89 -3 -3 1009.9 1007.7
15 19.05 Ю 8-11
{11}
20 км 10/10 600 м
[Sc]
+3.7 +2.4 91 -3 -3 1008.7 1006.5
18 19.05 ЮЗ 9-11
{12}
20 км 10/10 600 м
[Sc]
+4.0 +2.3 89 -3 -3 1008.0 1005.8
21 19.05 Ю 10-13
{13}
20 км 10/10 600 м
[Sc]
+3.9 +2.2 89 -3 -3 1006.2 1004.0 +3.5 0
00 20.05 Ю 10-14
{14}
10 км слабый ливневой дождь 10/10 300 м
[Cb cap]
+4.1 +3.3 95 -3 -3 1004.4 1002.2
03 20.05 Ю 12-16
{17}
10 км слабый ливневой дождь 10/10 300 м
[Cb cap]
+3.9 +3.1 95 -4 -4 999.7 997.5
06 20.05 ЮВ 15-20
{21}
10 км слабый ливневой дождь 10/10 300 м
[Cb cap]
+4.0 +3.0 93 -4 -4 994.1 991.9
09 20.05 В 17-22
{22}
10 км слабый ливневой дождь 10/10 200 м
[Cb cap]
+4.1 +3.5 96 -4 -4 988.5 986.4 +4.3 4
12 20.05 Ю 14-17
{25}
10 км слабый ливневой дождь 10/10 200 м
[Cb cap]
+4.1 +3.7 97 -4 -4 984.2 982.0
15 20.05 С 14-17
{19}
20 км {ливн. осадки} 10/10 600 м
[Cb cap]
+4.4 +2.3 86 -3 -3 982.8 980.7
18 20.05 С 13-17
{19}
20 км {ливн. осадки} 6/6 600 м
[Sc]
+4.5 +1.5 81 -3 -3 984.0 981.9
21 20.05 12-16
{17}
20 км н/о +4.7 +1.3 79 -3 -3 985.2 983.1 +4.0 0.5 0
00 21.05 С 10-14
{16}
20 км 8/4 600 м
[Sc Ac trans]
+5.5 +1.5 75 -1 -0 986.0 983.8
03 21.05 З 7-10
{15}
20 км 8/3 600 м
[Sc Cc]
+5.7 +2.0 77 +1 +3 987.5 985.4
06 21.05 З 8-10
{10}
20 км 8/3 600 м
[Sc Cs]
+5.6 +2.1 78 0 +1 988.9 986.7
09 21.05 З 9-12
{16}
20 км 9/9 600 м
[Sc]
+5.7 +0.5 69 0 0 991.4 989.2 +6.2
12 21.05 З 9-12
{12}
20 км 4/4 600 м
[Sc]
+4.9 +1.6 79 -1 -1 993.6 991.5
15 21.05 З 10-14
{14}
20 км 5/5 600 м
[Sc]
+4.9 +0.9 75 -1 -1 995.4 993.3
18 21.05 З 10-15
{16}
20 км 3/1 600 м
[Sc Ci fib]
+4.7 +1.0 77 -2 -2 996.7 994.6
21 21.05 ЮЗ 9-12
{16}
20 км 4/1 600 м
[Sc Ci]
+4.6 +2.3 85 -2 -1 997.3 995.1 +4.4 0
00 22.05 ЮЗ 12-16
{16}
4000 м слабый ливневой дождь 10/10 300 м
[Cb cap]
+2.6 +1.6 93 -5 -5 995.3 993.1 +2.4
03 22.05 ЮЗ 13-17
{19}
20 км в посл. час ливневой дождь 10/10 600 м
[Cb cap]
+3.2 +1.7 90 -5 -5 992.3 990.1
06 22.05 ЮЗ 10-12
{17}
10 км слабый ливневой дождь 9/9 600 м
[Cb cap]
+3.3 +1.8 90 -4 -4 989.2 987.0
09 22.05 СЗ 5
{12}
10 км слабый ливневой дождь 10/10 600 м
[Cb cap]
+2.5 +1.5 93 -3 -3 989.6 987.5 +4.6 4
12 22.05 СЗ 13-17
{18}
4000 м ливневой дождь со снегом 10/10 300 м
[Cb cap]
+1.7 +1.0 95 -7 -7 992.7 990.5
15 22.05 СЗ 12-16
{20}
20 км {ливн. осадки} 10/10 600 м
[Sc]
+1.9 +0.3 89 -6 -6 994.8 992.6
18 22.05 СЗ 9-11
{16}
20 км {ливн. осадки} 10/10 600 м
[Sc]
+2.0 +0.8 92 -5 -5 995.6 993.4
21 22.05 СЗ 8-10
{11}
10 км слабый ливневой дождь 10/10 600 м
[Cb cap]
+2.6 +1.6 93 -4 -4 997.1 994.9 +1.5 3 0
00 23.05 СЗ 8-10
{11}
10 км слабый ливневой дождь 10/10 300 м
[Cb cap]
+3.3 +2.3 93 -3 -3 997.8 995.6
03 23.05 С 8-10
{10}
20 км {ливн. осадки} 9/9 600 м
[Cu Sc]
+4.0 +2.3 89 -2 -2 999.1 996.9
06 23.05 С 8-11
{11}
20 км {ливн. осадки} 10/10 600 м
[Sc]
+2.9 +0.6 85 -4 -4 1000.8 998.6
09 23.05 СЗ 9-12
{12}
20 км {ливн. осадки} 10/10 600 м
[Sc]
+3.0 +1.7 91 -4 -4 1002.9 1000.7 +4.1 1
12 23.05 С 7
{15}
10 км слабый ливневой дождь 10/10 300 м
[Cb cap]
+2.9 +1.7 92 -3 -3 1004.9 1002.7
15 23.05 С 6
{10}
20 км {ливн. осадки} 10/10 600 м
[Sc]
+3.1 +1.6 90 -3 -3 1006.7 1004.5
18 23.05 С 8-11
{11}
20 км {ливн. осадки} 10/10 600 м
[Sc]
+3.7 +2.2 90 -3 -3 1009.1 1006.9
21 23.05 З 4
{11}
20 км 3/3 600 м
[Cu Sc]
+4.9 +2.9 87 +1 +4 1011.4 1009.2 +2.5 0.8 0
00 24.05 З 4 20 км 4/3 600 м
[Cu hum Cc]
+5.5 +3.1 85 +2 +8 1013.7 1011.5
03 24.05 З 4 20 км 3/1 600 м
[Cu hum Ci fib]
+6.0 +2.6 79 +2 +10 опасность
простуды
1015.3 1013.1

 

Местоположение метеостанции Остров Беринга (Камчатский край, Россия): широта 55.20 долгота 165.90 высота над уровнем моря 18 м.

В архиве по умолчанию представлена погода на Острове Беринга за последнюю неделю. Архивные данные за месяц целиком и за предыдущие месяцы, начиная с января 2011 года, Вы можете получить, выбрав интересующий диапазон дат из раскрывающегося списка и нажав кнопку "Ввод!".

Внимание! Время в таблицах - всемирное. Для получения местного времени необходимо прибавить поправку, которая на Острове Беринга равна 12 ч.

Смотрите также архив погоды в соседних городах и на ближайших метеорологических станциях:

Погода на Мысе Африка (Камчатский край, Россия) (196 км)
Погода в Усть-Камчатске (Камчатский край, Россия) (230 км)
Погода на Мысе Озерном (Камчатский край, Россия) (319 км)
Погода в Ключах (Камчатский край, Россия) (343 км)
Погода в Козыревске (Камчатский край, Россия) (394 км)
Погода в Семячике (Камчатский край, Россия) (404 км)
Погода в Долиновке (Камчатский край, Россия) (438 км)
Погода в Эссо (Камчатский край, Россия) (460 км)
Погода в Мильково (Камчатский край, Россия) (476 км)
Погода в Оссоре (Камчатский край, Россия) (481 км)

Пояснения к столбцам:

Ветер - указаны скорость ветра в м/с - средняя за 10 мин, порывы в срок и между сроками (в фигурных скобках) и направление, откуда дует ветер: С - северный, СВ - северо-восточный, В - восточный, ЮВ - юго-восточный, Ю - южный, ЮЗ - юго-западный, З - западный, СЗ - северо-западный.
Видимость - горизонтальная дальность видимости в метрах или километрах. При видимости от 1 до 10 км при отсутствии осадков обычно наблюдается дымка, при ухудшении видимости до 1 км и менее - туман. В сухую погоду видимость может ухудшаться дымом, пылью или мглою.
Явления - указаны атмосферные явления, наблюдавшиеся в срок или в последний час перед сроком; фигурными скобками обозначены явления, наблюдавшиеся между сроками (за 1-3 часа до срока); квадратными скобками обозначены град или гололедные отложения с указанием их диаметра в мм.
Облачность - указаны через наклонную черту общая и нижняя облачность в баллах и высота нижней границы облаков в метрах; квадратными скобками обозначены формы облаков: Ci - перистые, Cs - перисто-слоистые, Cc - перисто-кучевые, Ac - высококучевые, As - высокослоистые, Sc - слоисто-кучевые, Ns - слоисто-дождевые, Cu - кучевые, Cb - кучево-дождевые. Подробнее классификацию облаков см. в Атласе облаков (PDF).
T - Температура воздуха - температура, измеренная на высоте 2 м над землей.
Td - Температура точки росы - температура, при понижении до которой содержащийся в воздухе водяной пар достигнет насыщения.
f - Относительная влажность воздуха - влажноcть воздуха, измеренная на высоте 2 м над землей.
Te - Эффективная температура - температура, которую ощущает одетый по сезону человек в тени. Характеристика душности погоды. При расчете учитывается влияние влажности воздуха и скорости ветра на теплоощущения человека.
Tes - Эффективная температура на солнце - температура, которую ощущает человек, с поправкой на солнечный нагрев. Характеристика знойности погоды. Зависит от высоты солнца над горизонтом, облачности и скорости ветра. Ночью, в пасмурную погоду, а также при ветре 12 м/с и более поправка равна нулю.
P - Атмосферное давление - приведенное к уровню моря атмосферное давление.
Po - Атмосферное давление - измеренное на уровне метеостанции атмосферное давление.
Tmin - Минимальная температура - минимум температуры воздуха на высоте 2 м над землей.
Tmax - Максимальная температура - максимум температуры воздуха на высоте 2 м над землей.
R - Количество осадков - Количество выпавших осадков за период времени, мм. При наведении курсора мыши на число - период времени, за который выпало указанное количество осадков.
R24 - Количество осадков - Количество выпавших осадков за 24 часа, мм.
S - Снежный покров - Высота снежного покрова, см. При наведении курсора мыши на число - состояние снежного покрова и степень покрытия местности в баллах.